Regional Weather Roundup
Issued by NWS

Home | Current Version | Previous Version | Graphics & Text | Print | Product List | Glossary On
Versions: 1 2 3 4 5 6 7 8 9 10 11 12 13 14 15 16 17 18 19 20 21 22 23 24 25 26 27 28 29 30 31 32 33 34 35 36 37 38 39 40 41 42 43 44 45 46 47 48 49 50
000
ASUS45 KSLC 272010
RWRUT

UTAH REGIONAL WEATHER ROUNDUP
NATIONAL WEATHER SERVICE SALT LAKE CITY UT
100 PM MST TUE JAN 27 2015

UTZ001>011-023>025-272100-

NORTHERN UTAH

CITY           SKY/WX    TMP DP  RH WIND       PRES   REMARKS
BRIGHAM CITY   CLOUDY    43  37  78 NE5       30.21F
HILL AFB       PTSUNNY   52  27  37 S9        30.18F
LOGAN          CLOUDY    38  34  85 W3        30.20F
OGDEN          CLOUDY    47  34  60 NW5       30.18F
PROVO AIRPORT  PTSUNNY   48  34  57 VRB3      30.21F
SALT LAKE CITY PTSUNNY   56  35  45 S21       30.16F
VERNAL         CLOUDY    40  26  57 SE5       30.28F
WENDOVER       PTSUNNY   43  34  70 E5        30.19F
HEBER CITY     CLOUDY    41  30  65 CALM      30.22F
WEST JORDAN    MOSUNNY   54  36  50 SE16G23   30.20F

$$

UTZ012>022-026-027-272100-

SOUTHERN/CENTRAL UTAH

CITY           SKY/WX    TMP DP  RH WIND       PRES   REMARKS
BLANDING       CLOUDY    48  29  49 CALM      30.40F
BRYCE CANYON   FOG       34  33  96 SE12      30.32F VSB<1/4 WCI  25
CEDAR CITY     MOSUNNY   49  40  71 SW15      30.25F
DELTA          CLOUDY    49  40  69 S10       30.23F
MILFORD        PTSUNNY   51  41  68 S14       30.23F
MOAB/CYNLANDS  CLOUDY    42  32  67 CALM      30.29F
PRICE          CLOUDY    43  25  49 E7        30.29F
ST GEORGE      MOCLDY    55  46  71 W6        30.27F

$$

REGIONAL REPORTS     COLORADO/ARIZONA

CITY           SKY/WX    TMP DP  RH WIND       PRES   REMARKS
CRAIG, CO      SUNNY     38  26  62 SW3       30.26F
GRAND JUNCTION CLOUDY    47  28  47 W6        30.27F
RIFLE          SUNNY     50  24  36 VRB5      30.25F
MONTROSE       SUNNY     56  22  26 NW7       30.26F
CORTEZ         CLOUDY    49  31  49 NW5       30.33F
PAGE, AZ       NOT AVBL
GRAND CANYON   CLOUDY    47  42  83 SW15G22   30.32F
KINGMAN        PTSUNNY   59  47  64 W6        30.24F
FLAGSTAFF      PTSUNNY   47  34  60 SW12      30.34F

$$

REGIONAL REPORTS    NEVADA/IDAHO/WYOMING

CITY           SKY/WX    TMP DP  RH WIND       PRES   REMARKS
LAS VEGAS, NV  PTSUNNY   59  48  67 CALM      30.20F
ELY            LGT RAIN  44  36  73 S16G24    30.20F
ELKO           LGT RAIN  43  39  86 VRB3      30.15F
POCATELLO, ID  CLOUDY    43  36  76 NE7       30.13F
BURLEY         CLOUDY    49  35  58 SW16G23   30.09F
EVANSTON, WY   CLOUDY    43  26  51 SW15      30.20F
ROCK SPRINGS   MOSUNNY   48  26  42 SW3       30.19F
KEMMERER       CLOUDY    37  28  70 CALM      30.21F

$$



USA.gov is the U.S. government's official web portal to all federal, state and local government web resources and services.